When you browse on this site, cookies collect data to enhance your experience and personalize the content and advertising you see.
Visit our Privacy Policy to learn more. By continuing to use the site, you agree to this use of cookies and data.
  • In Sweden
  • List of Countries
  • For 7 days
  • Water Temperature
  • Weather Map
  • Weather Widgets
  • user-avatar
    Login

    Hourly Weather Uyna

    Today, 26 May, Tuesday

    Time Temperature Precipitation Wind Pressure Humidity
    00:00 +24°C° 0.5 mm 0 mps 738 mmHg 96%
    01:00 +24°C° 0.3 mm 0 mps 738 mmHg 97%
    02:00 +24°C° 0.3 mm 0 mps 737 mmHg 97%
    03:00 +24°C° 0.3 mm 0 mps 737 mmHg 98%
    04:00 +24°C° 0.2 mm 0 mps 737 mmHg 97%
    05:00 +25°C° 0.2 mm 0 mps 737 mmHg 97%
    06:00 +25°C° 0.2 mm 0 mps 738 mmHg 97%
    07:00 +27°C° 0 mm 0 mps 738 mmHg 87%
    08:00 +29°C° 0 mm 0 mps 738 mmHg 77%
    09:00 +33°C° 0 mm 1 mps 739 mmHg 67%
    10:00 +35°C° 0 mm 1 mps 738 mmHg 58%
    11:00 +36°C° 0 mm 1 mps 738 mmHg 50%
    12:00 +39°C° 0 mm 1 mps 738 mmHg 42%
    13:00 +39°C° 0 mm 2 mps 737 mmHg 41%
    14:00 +39°C° 0 mm 2 mps 736 mmHg 41%
    15:00 +39°C° 0 mm 2 mps 736 mmHg 41%
    16:00 +37°C° 0 mm 2 mps 736 mmHg 49%
    17:00 +35°C° 0 mm 2 mps 736 mmHg 56%
    18:00 +32°C° 0 mm 1 mps 736 mmHg 64%
    19:00 +31°C° 0 mm 1 mps 737 mmHg 71%
    20:00 +29°C° 0 mm 1 mps 738 mmHg 78%
    21:00 +26°C° 0 mm 0 mps 739 mmHg 85%
    22:00 +26°C° 0 mm 0 mps 739 mmHg 89%
    23:00 +25°C° 0 mm 0 mps 738 mmHg 93%

    Tomorrow, 27 May, Wednesday

    Time Temperature Precipitation Wind Pressure Humidity
    00:00 +24°C° 0 mm 0 mps 738 mmHg 97%
    01:00 +24°C° 0.1 mm 0 mps 738 mmHg 97%
    02:00 +24°C° 0.1 mm 0 mps 738 mmHg 98%
    03:00 +24°C° 0.1 mm 0 mps 738 mmHg 98%
    04:00 +24°C° 0.1 mm 0 mps 738 mmHg 97%
    05:00 +24°C° 0.1 mm 0 mps 738 mmHg 96%
    06:00 +25°C° 0.1 mm 0 mps 739 mmHg 96%
    07:00 +27°C° 0.1 mm 0 mps 739 mmHg 82%
    08:00 +32°C° 0.1 mm 1 mps 739 mmHg 68%
    09:00 +34°C° 0.1 mm 1 mps 740 mmHg 55%
    10:00 +35°C° 0 mm 1 mps 739 mmHg 51%
    11:00 +36°C° 0 mm 1 mps 738 mmHg 47%
    12:00 +38°C° 0 mm 2 mps 738 mmHg 43%
    13:00 +36°C° 0.9 mm 2 mps 737 mmHg 57%
    14:00 +34°C° 0.9 mm 2 mps 737 mmHg 71%
    15:00 +31°C° 0.9 mm 2 mps 736 mmHg 86%
    16:00 +30°C° 1 mm 1 mps 737 mmHg 89%
    17:00 +28°C° 1 mm 1 mps 737 mmHg 92%
    18:00 +25°C° 1 mm 0 mps 737 mmHg 95%
    19:00 +25°C° 0.2 mm 0 mps 738 mmHg 96%
    20:00 +25°C° 0.2 mm 0 mps 739 mmHg 97%
    21:00 +24°C° 0.2 mm 0 mps 739 mmHg 98%
    22:00 +24°C° 0.2 mm 0 mps 739 mmHg 98%
    23:00 +24°C° 0.2 mm 0 mps 739 mmHg 98%

    Day after tomorrow, 28 May, Thursday

    Time Temperature Precipitation Wind Pressure Humidity
    00:00 +24°C° 0.2 mm 0 mps 739 mmHg 99%
    01:00 +24°C° 0.3 mm 0 mps 739 mmHg 99%
    02:00 +23°C° 0.3 mm 0 mps 738 mmHg 99%
    03:00 +23°C° 0.3 mm 0 mps 738 mmHg 99%
    04:00 +23°C° 0.7 mm 0 mps 738 mmHg 99%
    05:00 +23°C° 0.7 mm 0 mps 739 mmHg 99%
    06:00 +24°C° 0.7 mm 0 mps 739 mmHg 98%
    07:00 +24°C° 1.3 mm 0 mps 739 mmHg 96%
    08:00 +27°C° 1.3 mm 1 mps 739 mmHg 94%
    09:00 +28°C° 1.3 mm 1 mps 740 mmHg 92%
    10:00 +29°C° 1.1 mm 1 mps 739 mmHg 91%
    11:00 +27°C° 1.1 mm 0 mps 739 mmHg 90%
    12:00 +27°C° 1.1 mm 0 mps 739 mmHg 89%
    13:00 +27°C° 1.2 mm 0 mps 738 mmHg 91%
    14:00 +26°C° 1.2 mm 0 mps 738 mmHg 92%
    15:00 +26°C° 1.2 mm 0 mps 738 mmHg 94%
    16:00 +25°C° 1 mm 0 mps 738 mmHg 95%
    17:00 +25°C° 1 mm 0 mps 738 mmHg 95%
    18:00 +24°C° 1 mm 0 mps 739 mmHg 96%
    19:00 +24°C° 0 mm 0 mps 739 mmHg 96%
    20:00 +23°C° 0 mm 0 mps 739 mmHg 97%
    21:00 +23°C° 0 mm 0 mps 740 mmHg 97%
    22:00 +23°C° 0.2 mm 0 mps 740 mmHg 98%
    23:00 +23°C° 0.2 mm 0 mps 739 mmHg 98%

    29 May, Friday

    Time Temperature Precipitation Wind Pressure Humidity
    00:00 +23°C° 0.2 mm 0 mps 739 mmHg 99%
    01:00 +23°C° 0.5 mm 0 mps 739 mmHg 99%
    02:00 +23°C° 0.5 mm 0 mps 739 mmHg 99%
    03:00 +23°C° 0.5 mm 0 mps 738 mmHg 99%
    04:00 +23°C° 0.2 mm 0 mps 738 mmHg 98%
    05:00 +23°C° 0.2 mm 0 mps 739 mmHg 98%
    06:00 +23°C° 0.2 mm 0 mps 739 mmHg 98%
    07:00 +27°C° 0 mm 1 mps 739 mmHg 87%
    08:00 +29°C° 0 mm 1 mps 739 mmHg 77%
    09:00 +31°C° 0 mm 1 mps 740 mmHg 66%
    10:00 +32°C° 0 mm 1 mps 739 mmHg 59%
    11:00 +35°C° 0 mm 2 mps 739 mmHg 51%
    12:00 +36°C° 0 mm 2 mps 738 mmHg 44%
    13:00 +36°C° 0 mm 2 mps 738 mmHg 44%
    14:00 +36°C° 0 mm 2 mps 737 mmHg 45%
    15:00 +36°C° 0 mm 3 mps 737 mmHg 45%
    16:00 +32°C° 1.1 mm 2 mps 737 mmHg 62%
    17:00 +29°C° 1.1 mm 2 mps 737 mmHg 78%
    18:00 +26°C° 1.1 mm 1 mps 738 mmHg 95%
    19:00 +25°C° 0.6 mm 1 mps 738 mmHg 96%
    20:00 +23°C° 0.6 mm 0 mps 739 mmHg 97%
    21:00 +23°C° 0.6 mm 0 mps 740 mmHg 97%
    22:00 +23°C° 1.3 mm 0 mps 739 mmHg 98%
    23:00 +22°C° 1.3 mm 0 mps 739 mmHg 98%

    30 May, Saturday

    Time Temperature Precipitation Wind Pressure Humidity
    00:00 +22°C° 1.3 mm 0 mps 739 mmHg 98%
    01:00 +22°C° 0.3 mm 0 mps 739 mmHg 98%
    02:00 +22°C° 0.3 mm 0 mps 738 mmHg 98%
    03:00 +22°C° 0.3 mm 0 mps 738 mmHg 98%
    04:00 +22°C° 0.1 mm 0 mps 738 mmHg 98%
    05:00 +22°C° 0.1 mm 0 mps 738 mmHg 98%
    06:00 +22°C° 0.1 mm 0 mps 738 mmHg 98%
    07:00 +23°C° 0 mm 0 mps 738 mmHg 95%
    08:00 +24°C° 0 mm 0 mps 739 mmHg 92%
    09:00 +25°C° 0 mm 0 mps 739 mmHg 89%
    10:00 +26°C° 0 mm 0 mps 739 mmHg 80%
    11:00 +28°C° 0 mm 0 mps 738 mmHg 72%
    12:00 +31°C° 0 mm 1 mps 738 mmHg 63%
    13:00 +27°C° 0.6 mm 0 mps 738 mmHg 74%
    14:00 +25°C° 0.6 mm 0 mps 737 mmHg 85%
    15:00 +24°C° 0.6 mm 0 mps 737 mmHg 97%
    16:00 +23°C° 0.5 mm 0 mps 737 mmHg 97%
    17:00 +23°C° 0.5 mm 0 mps 738 mmHg 98%
    18:00 +23°C° 0.5 mm 0 mps 738 mmHg 98%
    19:00 +22°C° 0.6 mm 0 mps 738 mmHg 99%
    20:00 +22°C° 0.6 mm 0 mps 739 mmHg 99%
    21:00 +22°C° 0.6 mm 0 mps 739 mmHg 99%
    22:00 +22°C° 1.3 mm 0 mps 739 mmHg 99%
    23:00 +22°C° 1.3 mm 0 mps 739 mmHg 99%

    31 May, Sunday

    Time Temperature Precipitation Wind Pressure Humidity
    00:00 +22°C° 1.3 mm 0 mps 739 mmHg 99%
    01:00 +22°C° 0.2 mm 0 mps 739 mmHg 99%
    02:00 +22°C° 0.2 mm 0 mps 738 mmHg 99%
    03:00 +22°C° 0.2 mm 0 mps 738 mmHg 99%
    04:00 +22°C° 0.3 mm 0 mps 738 mmHg 99%
    05:00 +22°C° 0.3 mm 0 mps 738 mmHg 99%
    06:00 +22°C° 0.3 mm 0 mps 738 mmHg 99%
    07:00 +23°C° 0 mm 0 mps 739 mmHg 97%
    08:00 +23°C° 0 mm 0 mps 739 mmHg 95%
    09:00 +24°C° 0 mm 0 mps 739 mmHg 93%
    10:00 +25°C° 0.1 mm 0 mps 739 mmHg 89%
    11:00 +26°C° 0.1 mm 0 mps 739 mmHg 84%
    12:00 +27°C° 0.1 mm 0 mps 738 mmHg 79%
    13:00 +27°C° 0.5 mm 0 mps 738 mmHg 81%
    14:00 +27°C° 0.5 mm 0 mps 737 mmHg 82%
    15:00 +27°C° 0.5 mm 0 mps 737 mmHg 83%
    16:00 +26°C° 0.7 mm 0 mps 737 mmHg 88%
    17:00 +25°C° 0.7 mm 0 mps 738 mmHg 93%
    18:00 +24°C° 0.7 mm 0 mps 738 mmHg 98%
    19:00 +23°C° 0.6 mm 0 mps 738 mmHg 98%
    20:00 +23°C° 0.6 mm 0 mps 739 mmHg 98%
    21:00 +23°C° 0.6 mm 0 mps 739 mmHg 98%
    22:00 +23°C° 0 mm 0 mps 739 mmHg 99%
    23:00 +23°C° 0 mm 0 mps 739 mmHg 99%
    Show more